STARLINK-34523

导读

STARLINK-345523是美国SpaceX星链星座的一员,于2025年6月23日发射升空,属于星链项目低轨互联网卫星部署批次。该卫星延续星链星座设计,将为全球偏远地区、海洋、航空等场景提供高速低延迟的宽带互联网服务,进一步扩充星链星座的全球覆盖容量与服务能力。

Basic Information
目录编号:
64475
目录名称:
STARLINK-34523
国际标识:
2025-133D
轨道中心:
EARTH
卫星名称:
STARLINK-34523
卫星全名:
STARLINK-34523
卫星状态:
在轨 (已飞行355 天)
发射日期:
2025-06-23 UTC
国别 :
美国 (US)
星等 :
--
Orbit Information
数据来源 国际轨道数据
星历时间: 2026-06-13T16:08:28+0800
15小时前
查看轨道信息
半长轴: 6840.807km
偏心率: 0.000125
轨道倾角: 53.160°
近地点辐角 101.349°
升交点赤经 29.621°
平近点角 258.765°
近地点: 461.814km
远地点: 463.526km
周期: 93.847分钟
每日圈数: 15.344115
Detailed Information
使用方式:
暂无
2D Orbit Map
3D Orbit Map
Orbit Altitude Analysis Chart
Orbit Inclination Analysis Chart
Orbit Comprehensive Analysis Chart
View Comprehensive Chart